CW9928 Weather Reports


Display with metric or nautical units.
time (UTC)temp
F
wind
direction
speed
MPH
gust
MPH
rain 1hr
in
rain 24hr
in
rain mn
in
humidity
%
barometer
mb
20260906220540 71 67 1.0 6.0 0.00 0.00 0.00 66 1019.0
20260906220001 71 39 2.0 6.0 0.00 0.00 0.00 66 1019.1
20260906215549 71 12 0.0 2.0 0.00 0.00 0.00 67 1019.1
20260906215025 71 12 0.0 6.0 0.00 0.00 0.00 66 1019.0
20260906214507 71 36 0.0 6.0 0.00 0.00 0.00 66 1019.1
20260906214049 72 17 1.0 6.0 0.00 0.00 0.00 65 1019.2
20260906213529 72 12 1.0 6.0 0.00 0.00 0.00 66 1019.1
20260906213010 72 31 1.0 6.0 0.00 0.00 0.00 65 1019.2
20260906212553 72 26 0.0 6.0 0.00 0.00 0.00 66 1019.1
20260906212032 72 25 0.0 6.0 0.00 0.00 0.00 65 1019.1
20260906211510 72 39 1.0 7.0 0.00 0.00 0.00 64 1019.1
20260906211054 72 50 2.0 7.0 0.00 0.00 0.00 64 1019.2
20260906210534 72 12 3.0 9.0 0.00 0.00 0.00 64 1019.2
20260906210139 72 58 0.0 7.0 0.00 0.00 0.00 63 1019.3
20260906205540 72 23 0.0 5.0 0.00 0.00 0.00 65 1019.2
20260906205020 72 63 0.0 5.0 0.00 0.00 0.00 64 1019.3
20260906204604 72 38 1.0 7.0 0.00 0.00 0.00 65 1019.2
20260906204044 72 23 2.0 7.0 0.00 0.00 0.00 64 1019.3
20260906203524 72 38 2.0 8.0 0.00 0.00 0.00 64 1019.2
20260906203004 73 81 1.0 5.0 0.00 0.00 0.00 65 1019.3
20260906202548 73 35 0.0 5.0 0.00 0.00 0.00 66 1019.2
20260906202028 73 29 0.0 6.0 0.00 0.00 0.00 65 1019.2
20260906201508 73 36 0.0 6.0 0.00 0.00 0.00 66 1019.3
20260906201055 73 35 1.0 6.0 0.00 0.00 0.00 66 1019.3
20260906200532 73 35 1.0 10.0 0.00 0.00 0.00 67 1019.2
20260906200116 73 72 2.0 10.0 0.00 0.00 0.00 68 1019.3
20260906195539 73 21 3.0 8.0 0.00 0.00 0.00 67 1019.3
20260906195018 73 59 0.0 9.0 0.00 0.00 0.00 67 1019.3
20260906194602 73 67 4.0 9.0 0.00 0.00 0.00 66 1019.4
20260906194042 73 3 1.0 9.0 0.00 0.00 0.00 66 1019.4
20260906193522 73 41 0.0 7.0 0.00 0.00 0.00 69 1019.3
20260906193002 73 31 2.0 10.0 0.00 0.00 0.00 69 1019.4
20260906192546 73 71 1.0 10.0 0.00 0.00 0.00 69 1019.4
20260906192026 73 76 0.0 6.0 0.00 0.00 0.00 69 1019.4
20260906191509 73 77 1.0 9.0 0.00 0.00 0.00 71 1019.5
20260906191049 73 79 1.0 9.0 0.00 0.00 0.00 70 1019.5
20260906190533 73 67 2.0 6.0 0.00 0.00 0.00 70 1019.5
20260906190114 73 26 2.0 6.0 0.00 0.00 0.00 69 1019.5
20260906185536 73 59 1.0 8.0 0.00 0.00 0.00 70 1019.5
20260906185016 73 47 3.0 8.0 0.00 0.00 0.00 71 1019.5
20260906184626 73 44 0.0 7.0 0.00 0.00 0.00 73 1019.6
20260906184040 72 53 1.0 8.0 0.00 0.00 0.00 74 1019.6
20260906183520 72 77 3.0 8.0 0.00 0.00 0.00 74 1019.6
20260906183105 72 79 2.0 8.0 0.00 0.00 0.00 74 1019.6
20260906182545 72 47 2.0 7.0 0.00 0.00 0.00 75 1019.6
20260906182024 72 36 2.0 9.0 0.00 0.00 0.00 74 1019.7
20260906181504 72 63 1.0 9.0 0.00 0.00 0.00 75 1019.6
20260906181048 71 34 1.0 7.0 0.00 0.00 0.00 77 1019.7
20260906180528 71 51 3.0 9.0 0.00 0.00 0.00 76 1019.7
20260906180116 71 44 3.0 9.0 0.00 0.00 0.00 76 1019.8
20260906175536 71 61 4.0 9.0 0.00 0.00 0.00 75 1019.8
20260906175013 71 70 2.0 9.0 0.00 0.00 0.00 76 1019.7
20260906174558 71 284 0.0 6.0 0.00 0.00 0.00 78 1019.7
20260906174038 71 66 1.0 9.0 0.00 0.00 0.00 77 1019.6
20260906173517 72 69 3.0 8.0 0.00 0.00 0.00 77 1019.6
20260906173113 71 41 1.0 7.0 0.00 0.00 0.00 77 1019.6
20260906172542 72 68 1.0 8.0 0.00 0.00 0.00 76 1019.5
20260906172023 72 62 1.0 8.0 0.00 0.00 0.00 75 1019.5
20260906171502 72 48 2.0 7.0 0.00 0.00 0.00 76 1019.6
20260906171045 72 58 2.0 7.0 0.00 0.00 0.00 75 1019.6
20260906170529 72 101 2.0 6.0 0.00 0.00 0.00 74 1019.6
20260906170112 71 24 2.0 6.0 0.00 0.00 0.00 73 1019.5
20260906165532 71 93 1.0 6.0 0.00 0.00 0.00 74 1019.5
20260906165012 71 22 0.0 7.0 0.00 0.00 0.00 76 1019.6
20260906164556 71 7 3.0 7.0 0.00 0.00 0.00 77 1019.6
20260906164036 70 24 1.0 10.0 0.00 0.00 0.00 77 1019.6
20260906163516 70 83 3.0 8.0 0.00 0.00 0.00 77 1019.6
20260906163100 70 23 1.0 7.0 0.00 0.00 0.00 78 1019.6
20260906162540 69 87 0.0 8.0 0.00 0.00 0.00 80 1019.7
20260906162020 69 46 2.0 8.0 0.00 0.00 0.00 80 1019.8
20260906161610 69 39 2.0 8.0 0.00 0.00 0.00 80 1019.7
20260906161043 69 2 2.0 8.0 0.00 0.00 0.00 80 1019.8
20260906160524 69 71 2.0 8.0 0.00 0.00 0.00 79 1019.8
20260906160108 69 23 1.0 7.0 0.00 0.00 0.00 80 1019.8
20260906155528 69 44 2.0 8.0 0.00 0.00 0.00 81 1019.8
20260906155007 69 40 1.0 8.0 0.00 0.00 0.00 80 1019.8
20260906154552 69 36 3.0 9.0 0.00 0.00 0.00 80 1019.7
20260906154032 69 46 3.0 9.0 0.00 0.00 0.00 80 1019.7
20260906153512 69 94 2.0 7.0 0.00 0.00 0.00 81 1019.7
20260906153056 69 38 1.0 7.0 0.00 0.00 0.00 81 1019.8
20260906152535 69 87 2.0 8.0 0.00 0.00 0.00 81 1019.8
20260906152016 69 40 4.0 8.0 0.00 0.00 0.00 81 1019.8
20260906151600 68 77 1.0 10.0 0.00 0.00 0.00 82 1019.8
20260906151040 68 43 4.0 10.0 0.00 0.00 0.00 82 1019.7
20260906150517 68 41 1.0 7.0 0.00 0.00 0.00 83 1019.6
20260906145523 68 48 2.0 6.0 0.00 0.00 0.00 82 1019.6
20260906145003 68 34 1.0 7.0 0.00 0.00 0.00 82 1019.4
20260906144548 68 56 2.0 7.0 0.00 0.00 0.00 82 1019.4
20260906144030 69 71 0.0 6.0 0.00 0.00 0.00 82 1019.3
20260906143508 69 47 1.0 8.0 0.00 0.00 0.00 82 1019.3
20260906143051 69 74 2.0 8.0 0.00 0.00 0.00 82 1019.2
20260906142531 68 61 2.0 10.0 0.00 0.00 0.00 83 1019.1
20260906142014 68 41 3.0 10.0 0.00 0.00 0.00 83 1019.1
20260906141555 68 44 2.0 9.0 0.00 0.00 0.00 83 1019.2
20260906141035 68 86 2.0 9.0 0.00 0.00 0.00 84 1019.2
20260906140516 68 76 3.0 8.0 0.00 0.00 0.00 85 1019.1
20260906140106 68 116 3.0 7.0 0.00 0.00 0.00 87 1019.1
20260906135521 67 223 0.0 7.0 0.00 0.00 0.00 90 1019.1
20260906135102 67 26 1.0 7.0 0.00 0.00 0.00 90 1019.1
20260906134541 67 44 0.0 6.0 0.00 0.00 0.00 91 1019.1
20260906134022 66 37 1.0 6.0 0.00 0.00 0.00 92 1019.2
20260906133502 66 34 2.0 7.0 0.00 0.00 0.00 93 1019.1
20260906133052 66 44 2.0 7.0 0.00 0.00 0.00 93 1019.1
20260906132526 66 56 2.0 7.0 0.00 0.00 0.00 94 1019.0
20260906132006 66 35 1.0 7.0 0.00 0.00 0.00 94 1019.0
20260906131550 65 44 0.0 7.0 0.00 0.00 0.00 95 1018.9
20260906131030 65 68 0.0 7.0 0.00 0.00 0.00 95 1019.0
20260906130510 65 68 3.0 7.0 0.00 0.00 0.00 95 1019.1
20260906130121 65 60 0.0 4.0 0.00 0.00 0.00 95 1019.0
20260906125516 64 53 0.0 4.0 0.00 0.00 0.00 95 1019.1
20260906125059 64 53 0.0 4.0 0.00 0.00 0.00 95 1019.0
20260906124540 64 54 0.0 3.0 0.00 0.00 0.00 95 1019.0
20260906124019 64 54 0.0 4.0 0.00 0.00 0.00 95 1018.9
20260906123602 63 54 0.0 3.0 0.00 0.00 0.00 95 1018.9
20260906123042 63 54 0.0 0.0 0.00 0.00 0.00 95 1018.8
20260906122523 63 54 0.0 0.0 0.00 0.00 0.00 95 1018.8
20260906122003 62 54 0.0 0.0 0.00 0.00 0.00 95 1018.8
20260906121555 62 54 0.0 0.0 0.00 0.00 0.00 95 1018.7
20260906121025 61 54 0.0 0.0 0.00 0.00 0.00 95 1018.7
20260906120509 61 54 0.0 0.0 0.00 0.00 0.00 95 1018.6
20260906115512 61 54 0.0 0.0 0.00 0.00 0.00 94 1018.5
20260906115055 60 54 0.0 0.0 0.00 0.00 0.00 94 1018.5
20260906114537 60 54 0.0 0.0 0.00 0.00 0.00 94 1018.5
20260906114015 60 54 0.0 0.0 0.00 0.00 0.00 94 1018.5
20260906113559 60 54 0.0 0.0 0.00 0.00 0.00 94 1018.4
20260906113048 60 54 0.0 0.0 0.00 0.00 0.00 94 1018.4
20260906112518 60 54 0.0 0.0 0.00 0.00 0.00 94 1018.3
20260906112102 60 54 0.0 0.0 0.00 0.00 0.00 94 1018.1
20260906111543 60 54 0.0 0.0 0.00 0.00 0.00 94 1018.1
20260906111022 60 54 0.0 0.0 0.00 0.00 0.00 94 1018.1
20260906110503 60 54 0.0 0.0 0.00 0.00 0.00 93 1018.0
20260906110046 60 54 0.0 0.0 0.00 0.00 0.00 93 1017.9
20260906105508 60 54 0.0 0.0 0.00 0.00 0.00 93 1017.8
20260906105053 61 54 0.0 0.0 0.00 0.00 0.00 93 1017.8
20260906104535 61 54 0.0 0.0 0.00 0.00 0.00 93 1017.8
20260906104013 61 54 0.0 0.0 0.00 0.00 0.00 93 1017.8
20260906103557 61 54 0.0 0.0 0.00 0.00 0.00 93 1017.8
20260906103047 61 54 0.0 0.0 0.00 0.00 0.00 93 1017.8
20260906102520 61 54 0.0 0.0 0.00 0.00 0.00 93 1017.7
20260906102100 61 54 0.0 0.0 0.00 0.00 0.00 93 1017.6
20260906101541 61 54 0.0 0.0 0.00 0.00 0.00 93 1017.7
20260906101023 61 54 0.0 0.0 0.00 0.00 0.00 93 1017.7
20260906100604 62 54 0.0 0.0 0.00 0.00 0.00 93 1017.5
20260906100045 62 54 0.0 0.0 0.00 0.00 0.00 93 1017.5
20260906095506 62 54 0.0 0.0 0.00 0.00 0.00 93 1017.4
20260906095050 62 54 0.0 0.0 0.00 0.00 0.00 93 1017.4
20260906094530 62 54 0.0 0.0 0.00 0.00 0.00 93 1017.3
20260906094011 62 54 0.0 0.0 0.00 0.00 0.00 93 1017.3
20260906093555 62 54 0.0 0.0 0.00 0.00 0.00 93 1017.3
20260906093039 62 54 0.0 0.0 0.00 0.00 0.00 93 1017.2
20260906092516 62 54 0.0 0.0 0.00 0.00 0.00 93 1017.1
20260906092059 62 54 0.0 0.0 0.00 0.00 0.00 93 1017.0
20260906091541 62 54 0.0 0.0 0.00 0.00 0.00 92 1016.9
20260906091018 62 54 0.0 0.0 0.00 0.00 0.00 93 1016.9
20260906090602 62 54 0.0 0.0 0.00 0.00 0.00 92 1016.9
20260906090023 62 54 0.0 0.0 0.00 0.00 0.00 92 1016.9
20260906085505 63 54 0.0 0.0 0.00 0.00 0.00 92 1016.8
20260906085048 63 54 0.0 0.0 0.00 0.00 0.00 92 1016.7
20260906084526 63 54 0.0 0.0 0.00 0.00 0.00 91 1016.8
20260906084010 63 54 0.0 0.0 0.00 0.00 0.00 92 1016.7
20260906083551 63 54 0.0 0.0 0.00 0.00 0.00 91 1016.7
20260906083031 63 54 0.0 0.0 0.00 0.00 0.00 91 1016.5
20260906082513 63 54 0.0 0.0 0.00 0.00 0.00 91 1016.5
20260906082054 63 54 0.0 0.0 0.00 0.00 0.00 91 1016.4
20260906081536 64 54 0.0 0.0 0.00 0.00 0.00 91 1016.5
20260906081014 64 54 0.0 0.0 0.00 0.00 0.00 90 1016.3
20260906080558 64 54 0.0 0.0 0.00 0.00 0.00 90 1016.3
20260906080039 64 54 0.0 0.0 0.00 0.00 0.00 90 1016.3
20260906075604 64 54 0.0 0.0 0.00 0.00 0.00 90 1016.2
20260906075045 64 54 0.0 0.0 0.00 0.00 0.00 90 1016.2
20260906074524 65 54 0.0 0.0 0.00 0.00 0.00 90 1016.2
20260906074004 65 54 0.0 0.0 0.00 0.00 0.00 90 1016.2
20260906073548 65 54 0.0 0.0 0.00 0.00 0.00 90 1016.2
20260906073028 65 54 0.0 0.0 0.00 0.00 0.00 90 1016.3
20260906072509 65 54 0.0 0.0 0.00 0.00 0.00 90 1016.2
20260906072051 65 54 0.0 0.0 0.00 0.00 0.00 90 1016.2
20260906071532 65 54 0.0 0.0 0.00 0.00 0.00 90 1016.2
20260906071012 65 54 0.0 0.0 0.00 0.00 0.00 90 1016.2
20260906070556 65 54 0.0 0.0 0.00 0.00 0.00 90 1016.2
20260906070036 65 54 0.0 0.0 0.00 0.00 0.00 90 1016.2
20260906065602 65 54 0.0 0.0 0.00 0.00 0.00 90 1016.2
20260906065043 65 54 0.0 0.0 0.00 0.00 0.00 90 1016.2
20260906064532 65 54 0.0 0.0 0.00 0.00 0.00 90 1016.3
20260906064003 65 54 0.0 0.0 0.00 0.00 0.00 90 1016.2
20260906063546 65 54 0.0 0.0 0.00 0.00 0.00 90 1016.3
20260906063026 65 54 0.0 0.0 0.00 0.00 0.00 90 1016.3
20260906062507 65 54 0.0 0.0 0.00 0.00 0.00 90 1016.4
20260906062050 65 54 0.0 0.0 0.00 0.00 0.00 90 1016.3
20260906061530 65 54 0.0 0.0 0.00 0.00 0.00 90 1016.3
20260906061010 65 54 0.0 0.0 0.00 0.00 0.00 90 1016.1
20260906060554 65 54 0.0 0.0 0.00 0.00 0.00 90 1016.1
20260906060034 65 54 0.0 0.0 0.00 0.00 0.00 90 1016.2
20260906055600 65 54 0.0 0.0 0.00 0.00 0.00 90 1016.2
20260906055040 65 54 0.0 0.0 0.00 0.00 0.00 90 1016.2
20260906054532 65 54 0.0 0.0 0.00 0.00 0.00 90 1016.2
20260906054104 65 54 0.0 0.0 0.00 0.00 0.00 90 1016.2
20260906053545 65 54 0.0 0.0 0.00 0.00 0.00 89 1016.2
20260906053024 65 54 0.0 0.0 0.00 0.00 0.00 89 1016.1
20260906052504 66 54 0.0 0.0 0.00 0.00 0.00 89 1016.2
20260906052049 66 54 0.0 0.0 0.00 0.00 0.00 89 1016.2
20260906051528 66 54 0.0 0.0 0.00 0.00 0.00 90 1016.1
20260906051011 66 54 0.0 0.0 0.00 0.00 0.00 90 1016.0
20260906050552 66 54 0.0 0.0 0.00 0.00 0.00 89 1016.1
20260906050014 66 54 0.0 0.0 0.00 0.00 0.00 90 1016.1
20260906045600 66 54 0.0 0.0 0.00 0.00 0.00 90 1016.1
20260906045038 66 54 0.0 0.0 0.00 0.00 0.00 90 1016.1
20260906044518 66 54 0.0 0.0 0.00 0.00 0.00 90 1016.1
20260906044104 66 54 0.0 0.0 0.00 0.00 0.00 90 1016.1
20260906043542 66 54 0.0 0.0 0.00 0.00 0.00 90 1016.1
20260906043024 66 54 0.0 0.0 0.00 0.00 0.00 90 1016.1
20260906042504 66 54 0.0 0.0 0.00 0.00 0.00 89 1016.1
20260906042046 66 54 0.0 0.0 0.00 0.00 0.00 89 1016.1
20260906041526 66 54 0.0 0.0 0.00 0.00 0.00 89 1016.1
20260906041006 66 54 0.0 0.0 0.00 0.00 0.00 89 1016.0
20260906040550 66 54 0.0 0.0 0.00 0.00 0.00 89 1016.0
20260906040012 66 54 0.0 0.0 0.00 0.00 0.00 89 1016.0
20260906035555 66 54 0.0 0.0 0.00 0.00 0.00 90 1016.0
20260906035035 66 54 0.0 0.0 0.00 0.00 0.00 90 1016.0
20260906034515 66 54 0.0 0.0 0.00 0.00 0.00 90 1015.9
20260906034058 66 54 0.0 0.0 0.00 0.00 0.00 90 1015.9
20260906033539 66 54 0.0 0.0 0.00 0.00 0.00 89 1015.9
20260906033019 66 54 0.0 0.0 0.00 0.00 0.00 89 1015.9
20260906032604 66 54 0.0 0.0 0.00 0.00 0.00 90 1015.8
20260906032043 66 54 0.0 0.0 0.00 0.00 0.00 89 1016.0
20260906031523 65 54 0.0 0.0 0.00 0.00 0.00 89 1015.8
20260906031003 65 54 0.0 0.0 0.00 0.00 0.00 89 1015.8
20260906030547 65 54 0.0 0.0 0.00 0.00 0.00 89 1015.7
20260906030010 65 54 0.0 0.0 0.00 0.00 0.00 89 1015.8
20260906025553 65 54 0.0 0.0 0.00 0.00 0.00 88 1015.7
20260906025033 65 54 0.0 0.0 0.00 0.00 0.00 88 1015.7
20260906024513 65 54 0.0 0.0 0.00 0.00 0.00 88 1015.7
20260906024057 65 54 0.0 0.0 0.00 0.00 0.00 87 1015.7
20260906023537 65 54 0.0 0.0 0.00 0.00 0.00 87 1015.7
20260906023017 66 54 0.0 0.0 0.00 0.00 0.00 87 1015.6
20260906022601 66 54 0.0 0.0 0.00 0.00 0.00 87 1015.6
20260906022042 66 54 0.0 0.0 0.00 0.00 0.00 86 1015.6
20260906021534 66 54 0.0 0.0 0.00 0.00 0.00 86 1015.6
20260906021002 66 54 0.0 0.0 0.00 0.00 0.00 85 1015.6
20260906020545 66 54 0.0 0.0 0.00 0.00 0.00 85 1015.6
20260906020007 66 54 0.0 0.0 0.00 0.00 0.00 85 1015.6
20260906015550 66 54 0.0 0.0 0.00 0.00 0.00 84 1015.6
20260906015031 66 54 0.0 0.0 0.00 0.00 0.00 84 1015.4
20260906014521 67 54 0.0 0.0 0.00 0.00 0.00 84 1015.4
20260906014104 67 54 0.0 0.0 0.00 0.00 0.00 84 1015.3
20260906013544 67 54 0.0 0.0 0.00 0.00 0.00 84 1015.4
20260906013035 67 54 0.0 0.0 0.00 0.00 0.00 84 1015.4
20260906012503 67 54 0.0 0.0 0.00 0.00 0.00 84 1015.4
20260906012049 67 54 0.0 0.0 0.00 0.00 0.00 84 1015.3
20260906011532 67 54 0.0 0.0 0.00 0.00 0.00 83 1015.4
20260906011009 67 54 0.0 0.0 0.00 0.00 0.00 83 1015.3
20260906010552 67 54 0.0 0.0 0.00 0.00 0.00 83 1015.2
20260906010017 67 54 0.0 0.0 0.00 0.00 0.00 83 1015.2
20260906005558 67 54 0.0 0.0 0.00 0.00 0.00 83 1015.1
20260906005038 67 54 0.0 0.0 0.00 0.00 0.00 83 1015.1
20260906004517 67 54 0.0 0.0 0.00 0.00 0.00 82 1015.1
20260906004105 67 54 0.0 0.0 0.00 0.00 0.00 82 1015.0
20260906003542 67 54 0.0 0.0 0.00 0.00 0.00 82 1015.0
20260906003023 67 54 0.0 0.0 0.00 0.00 0.00 81 1015.0
20260906002502 67 54 0.0 0.0 0.00 0.00 0.00 81 1015.0
20260906002048 68 54 0.0 0.0 0.00 0.00 0.00 80 1015.0
20260906001525 68 54 0.0 0.0 0.00 0.00 0.00 80 1015.1
20260906001005 68 54 0.0 0.0 0.00 0.00 0.00 80 1015.0
20260906000550 68 54 0.0 0.0 0.00 0.00 0.00 79 1014.9
20260906000012 69 54 0.0 0.0 0.00 0.00 0.00 78 1014.9
20260905235555 69 54 0.0 0.0 0.00 0.00 0.00 78 1014.9
20260905235036 69 54 0.0 0.0 0.00 0.00 0.00 77 1014.9
20260905234516 69 54 0.0 0.0 0.00 0.00 0.00 77 1015.0
20260905234100 70 54 0.0 0.0 0.00 0.00 0.00 76 1015.1
20260905233541 70 54 0.0 0.0 0.00 0.00 0.00 75 1015.2
20260905233021 71 54 0.0 0.0 0.00 0.00 0.00 74 1015.2
20260905232604 71 54 0.0 0.0 0.00 0.00 0.00 73 1015.2
20260905232044 71 54 0.0 0.0 0.00 0.00 0.00 73 1015.0
20260905231524 72 54 0.0 0.0 0.00 0.00 0.00 72 1015.1
20260905231003 72 54 0.0 0.0 0.00 0.00 0.00 71 1015.0
20260905230547 72 54 0.0 0.0 0.00 0.00 0.00 70 1015.1
20260905230010 73 54 0.0 0.0 0.00 0.00 0.00 68 1015.0
20260905225553 73 54 0.0 0.0 0.00 0.00 0.00 68 1015.0
20260905225033 73 54 0.0 2.0 0.00 0.00 0.00 67 1015.1
20260905224517 73 54 0.0 2.0 0.00 0.00 0.00 65 1015.1
20260905224059 73 54 0.0 1.0 0.00 0.00 0.00 65 1015.1
20260905223537 73 54 0.0 0.0 0.00 0.00 0.00 64 1015.1
20260905223018 73 54 0.0 0.0 0.00 0.00 0.00 63 1015.1
20260905222602 73 54 0.0 1.0 0.00 0.00 0.00 63 1015.1
20260905222041 73 54 0.0 1.0 0.00 0.00 0.00 64 1015.0
20260905221522 73 54 0.0 5.0 0.00 0.00 0.00 63 1015.0
20260905221002 73 54 0.0 5.0 0.00 0.00 0.00 63 1015.0